Location: Grand Lay
(47.3253°N, 0.9468°E)
Time: 09:37:34
(UTC+00:00)

Cosmos 1656 Rocket - Pass Details

Date: 18 January 2026
Orbit: 794 x 843 km, 71.1° (Epoch: 16 February)

Event Time Altitude Azimuth Distance (km) Brightness Sun altitude
Rises 05:57:24 0° 193° (SSW) 3,387 6.8 -16.5°
Reaches altitude 10° 05:59:52 10° 190° (S) 2,456 6.1 -16.0°
Maximum altitude 06:05:25 61° 112° (ESE) 951 4.3 -15.1°
Drops below altitude 10° 06:10:58 10° 33° (NNE) 2,460 6.3 -14.2°
Sets 06:13:26 0° 30° (NNE) 3,393 7.0 -13.8°
